date,time,SUV Intensity [MED/Hr],UV Index,Daily total [MED],Since Last [MED]
28/07/2023,23:59:30,0.000,0.0,7.429,7.429
29/07/2023,00:00:28,0.000,0.0,0.0,-7.429
29/07/2023,00:01:29,0.000,0.0,0.0,0.0
29/07/2023,00:02:30,0.000,0.0,0.0,0.0
29/07/2023,00:03:29,0.000,0.0,0.0,0.0
29/07/2023,00:04:29,0.000,0.0,0.0,0.0
29/07/2023,00:05:28,-0.000,0.0,0.0,0.0
29/07/2023,00:06:29,0.000,0.0,0.0,0.0
29/07/2023,00:07:28,0.000,0.0,0.0,0.0
29/07/2023,00:08:29,0.001,0.0,0.0,0.0
29/07/2023,00:09:28,0.000,0.0,0.0,0.0
29/07/2023,00:10:29,0.000,0.0,0.0,0.0
29/07/2023,00:11:29,0.000,0.0,0.0,0.0
29/07/2023,00:12:28,0.000,0.0,0.0,0.0
29/07/2023,00:13:29,0.000,0.0,0.0,0.0
29/07/2023,00:14:29,0.000,0.0,0.0,0.0
29/07/2023,00:15:28,0.000,0.0,0.0,0.0
29/07/2023,00:16:29,0.000,0.0,0.0,0.0
29/07/2023,00:17:29,0.000,0.0,0.0,0.0
29/07/2023,00:18:28,0.000,0.0,0.0,0.0
29/07/2023,00:19:28,0.000,0.0,0.0,0.0
29/07/2023,00:20:28,0.000,0.0,0.0,0.0
29/07/2023,00:21:28,0.001,0.0,0.0,0.0
29/07/2023,00:22:28,0.000,0.0,0.0,0.0
29/07/2023,00:23:29,0.000,0.0,0.0,0.0
29/07/2023,00:24:28,0.000,0.0,0.0,0.0
29/07/2023,00:25:29,0.000,0.0,0.0,0.0
29/07/2023,00:26:29,0.000,0.0,0.0,0.0
29/07/2023,00:27:29,-0.000,0.0,0.0,0.0
29/07/2023,00:28:28,0.000,0.0,0.0,0.0
29/07/2023,00:29:29,0.000,0.0,0.0,0.0
29/07/2023,00:30:29,0.000,0.0,0.0,0.0
29/07/2023,00:31:28,0.000,0.0,0.0,0.0
29/07/2023,00:32:29,0.000,0.0,0.0,0.0
29/07/2023,00:33:29,0.000,0.0,0.0,0.0
29/07/2023,00:34:28,0.000,0.0,0.0,0.0
29/07/2023,00:35:29,-0.000,0.0,0.0,0.0
29/07/2023,00:36:29,0.000,0.0,0.0,0.0
29/07/2023,00:37:28,0.000,0.0,0.0,0.0
29/07/2023,00:38:28,0.000,0.0,0.0,0.0
29/07/2023,00:39:29,0.000,0.0,0.0,0.0
29/07/2023,00:40:28,0.000,0.0,0.0,0.0
29/07/2023,00:41:28,0.000,0.0,0.0,0.0
29/07/2023,00:42:28,0.000,0.0,0.0,0.0
29/07/2023,00:43:29,0.000,0.0,0.0,0.0
29/07/2023,00:44:29,0.000,0.0,0.0,0.0
29/07/2023,00:45:28,0.001,0.0,0.0,0.0
29/07/2023,00:46:29,0.000,0.0,0.0,0.0
29/07/2023,00:47:28,0.000,0.0,0.0,0.0
29/07/2023,00:48:29,0.000,0.0,0.0,0.0
29/07/2023,00:49:29,0.000,0.0,0.0,0.0
29/07/2023,00:50:28,0.001,0.0,0.0,0.0
29/07/2023,00:51:28,0.000,0.0,0.0,0.0
29/07/2023,00:52:29,0.000,0.0,0.0,0.0
29/07/2023,00:53:28,0.000,0.0,0.0,0.0
29/07/2023,00:54:28,0.000,0.0,0.0,0.0
29/07/2023,00:55:28,0.000,0.0,0.0,0.0
29/07/2023,00:56:29,0.000,0.0,0.0,0.0
29/07/2023,00:57:28,0.000,0.0,0.0,0.0
29/07/2023,00:58:29,0.000,0.0,0.0,0.0
29/07/2023,00:59:28,0.000,0.0,0.0,0.0
29/07/2023,01:00:29,-0.000,0.0,0.0,0.0
29/07/2023,01:01:28,-0.000,0.0,0.0,0.0
29/07/2023,01:02:29,0.000,0.0,0.0,0.0
29/07/2023,01:03:28,0.000,0.0,0.0,0.0
29/07/2023,01:04:28,0.000,0.0,0.0,0.0
29/07/2023,01:05:28,0.000,0.0,0.0,0.0
29/07/2023,01:06:29,0.000,0.0,0.0,0.0
29/07/2023,01:07:29,-0.000,0.0,0.0,0.0
29/07/2023,01:08:29,0.001,0.0,0.0,0.0
29/07/2023,01:09:29,0.000,0.0,0.0,0.0
29/07/2023,01:10:28,-0.000,0.0,0.0,0.0
29/07/2023,01:11:29,0.000,0.0,0.0,0.0
29/07/2023,01:12:29,0.000,0.0,0.0,0.0
29/07/2023,01:13:29,0.000,0.0,0.0,0.0
29/07/2023,01:14:29,0.000,0.0,0.0,0.0
29/07/2023,01:15:29,0.000,0.0,0.0,0.0
29/07/2023,01:16:28,0.000,0.0,0.0,0.0
29/07/2023,01:17:28,0.000,0.0,0.0,0.0
29/07/2023,01:18:29,0.000,0.0,0.0,0.0
29/07/2023,01:19:29,0.000,0.0,0.0,0.0
29/07/2023,01:20:29,-0.000,0.0,0.0,0.0
29/07/2023,01:21:29,-0.000,0.0,0.0,0.0
29/07/2023,01:22:28,0.000,0.0,0.0,0.0
29/07/2023,01:23:29,0.000,0.0,0.0,0.0
29/07/2023,01:24:28,0.000,0.0,0.0,0.0
29/07/2023,01:25:28,0.000,0.0,0.0,0.0
29/07/2023,01:26:29,0.000,0.0,0.0,0.0
29/07/2023,01:27:29,0.000,0.0,0.0,0.0
29/07/2023,01:28:28,0.000,0.0,0.0,0.0
29/07/2023,01:29:29,0.000,0.0,0.0,0.0
29/07/2023,01:30:29,0.000,0.0,0.0,0.0
29/07/2023,01:31:29,0.000,0.0,0.0,0.0
29/07/2023,01:32:29,0.000,0.0,0.0,0.0
29/07/2023,01:33:28,0.000,0.0,0.0,0.0
29/07/2023,01:34:29,0.000,0.0,0.0,0.0
29/07/2023,01:35:29,0.000,0.0,0.0,0.0
29/07/2023,01:36:29,0.000,0.0,0.0,0.0
29/07/2023,01:37:29,0.000,0.0,0.0,0.0
29/07/2023,01:38:29,-0.000,0.0,0.0,0.0
29/07/2023,01:39:29,0.000,0.0,0.0,0.0
29/07/2023,01:40:29,0.000,0.0,0.0,0.0
29/07/2023,01:41:28,0.000,0.0,0.0,0.0
29/07/2023,01:42:29,0.000,0.0,0.0,0.0
29/07/2023,01:43:28,0.000,0.0,0.0,0.0
29/07/2023,01:44:29,0.000,0.0,0.0,0.0
29/07/2023,01:45:29,0.000,0.0,0.0,0.0
29/07/2023,01:46:29,0.000,0.0,0.0,0.0
29/07/2023,01:47:29,0.000,0.0,0.0,0.0
29/07/2023,01:48:29,0.000,0.0,0.0,0.0
29/07/2023,01:49:29,0.000,0.0,0.0,0.0
29/07/2023,01:50:29,0.000,0.0,0.0,0.0
29/07/2023,01:51:28,0.000,0.0,0.0,0.0
29/07/2023,01:52:29,0.000,0.0,0.0,0.0
29/07/2023,01:53:28,0.000,0.0,0.0,0.0
29/07/2023,01:54:29,0.000,0.0,0.0,0.0
29/07/2023,01:55:29,0.000,0.0,0.0,0.0
29/07/2023,01:56:28,0.000,0.0,0.0,0.0
29/07/2023,01:57:29,0.000,0.0,0.0,0.0
29/07/2023,01:58:28,0.001,0.0,0.0,0.0
29/07/2023,01:59:29,0.000,0.0,0.0,0.0
29/07/2023,02:00:28,0.000,0.0,0.0,0.0
29/07/2023,02:01:28,0.000,0.0,0.0,0.0
29/07/2023,02:02:29,0.000,0.0,0.0,0.0
29/07/2023,02:03:29,0.000,0.0,0.0,0.0
29/07/2023,02:04:28,0.000,0.0,0.0,0.0
29/07/2023,02:05:29,0.000,0.0,0.0,0.0
29/07/2023,02:06:29,0.000,0.0,0.0,0.0
29/07/2023,02:07:28,0.000,0.0,0.0,0.0
29/07/2023,02:08:29,0.000,0.0,0.0,0.0
29/07/2023,02:09:29,0.000,0.0,0.0,0.0
29/07/2023,02:10:29,0.000,0.0,0.0,0.0
29/07/2023,02:11:29,0.000,0.0,0.0,0.0
29/07/2023,02:12:28,0.000,0.0,0.0,0.0
29/07/2023,02:13:29,0.000,0.0,0.0,0.0
29/07/2023,02:14:29,0.000,0.0,0.0,0.0
29/07/2023,02:15:29,0.000,0.0,0.0,0.0
29/07/2023,02:16:28,0.000,0.0,0.0,0.0
29/07/2023,02:17:29,0.000,0.0,0.0,0.0
29/07/2023,02:18:28,0.000,0.0,0.0,0.0
29/07/2023,02:19:29,0.000,0.0,0.0,0.0
29/07/2023,02:20:29,0.000,0.0,0.0,0.0
29/07/2023,02:21:28,-0.000,0.0,0.0,0.0
29/07/2023,02:22:29,0.000,0.0,0.0,0.0
29/07/2023,02:23:29,0.000,0.0,0.0,0.0
29/07/2023,02:24:28,0.000,0.0,0.0,0.0
29/07/2023,02:25:29,0.001,0.0,0.0,0.0
29/07/2023,02:26:28,0.000,0.0,0.0,0.0
29/07/2023,02:27:29,0.000,0.0,0.0,0.0
29/07/2023,02:28:29,0.000,0.0,0.0,0.0
29/07/2023,02:29:29,0.000,0.0,0.0,0.0
29/07/2023,02:30:29,0.000,0.0,0.0,0.0
29/07/2023,02:31:29,0.000,0.0,0.0,0.0
29/07/2023,02:32:28,0.000,0.0,0.0,0.0
29/07/2023,02:33:29,0.000,0.0,0.0,0.0
29/07/2023,02:34:28,0.000,0.0,0.0,0.0
29/07/2023,02:35:29,0.000,0.0,0.0,0.0
29/07/2023,02:36:29,0.000,0.0,0.0,0.0
29/07/2023,02:37:29,0.000,0.0,0.0,0.0
29/07/2023,02:38:29,0.000,0.0,0.0,0.0
29/07/2023,02:39:29,0.000,0.0,0.0,0.0
29/07/2023,02:40:29,0.000,0.0,0.0,0.0
29/07/2023,02:41:29,0.000,0.0,0.0,0.0
29/07/2023,02:42:28,0.000,0.0,0.0,0.0
29/07/2023,02:43:28,0.000,0.0,0.0,0.0
29/07/2023,02:44:29,0.000,0.0,0.0,0.0
29/07/2023,02:45:29,0.000,0.0,0.0,0.0
29/07/2023,02:46:29,0.000,0.0,0.0,0.0
29/07/2023,02:47:28,0.001,0.0,0.0,0.0
29/07/2023,02:48:29,0.000,0.0,0.0,0.0
29/07/2023,02:49:29,-0.000,0.0,0.0,0.0
29/07/2023,02:50:28,0.000,0.0,0.0,0.0
29/07/2023,02:51:29,0.000,0.0,0.0,0.0
29/07/2023,02:52:28,0.000,0.0,0.0,0.0
29/07/2023,02:53:29,0.000,0.0,0.0,0.0
29/07/2023,02:54:28,0.000,0.0,0.0,0.0
29/07/2023,02:55:29,0.000,0.0,0.0,0.0
29/07/2023,02:56:28,0.000,0.0,0.0,0.0
29/07/2023,02:57:28,0.000,0.0,0.0,0.0
29/07/2023,02:58:29,0.000,0.0,0.0,0.0
29/07/2023,02:59:28,0.000,0.0,0.0,0.0
29/07/2023,03:00:29,0.000,0.0,0.0,0.0
29/07/2023,03:01:29,0.000,0.0,0.0,0.0
29/07/2023,03:02:29,0.000,0.0,0.0,0.0
29/07/2023,03:03:29,0.000,0.0,0.0,0.0
29/07/2023,03:04:29,-0.000,0.0,0.0,0.0
29/07/2023,03:05:29,0.000,0.0,0.0,0.0
29/07/2023,03:06:29,0.000,0.0,0.0,0.0
29/07/2023,03:07:29,0.000,0.0,0.0,0.0
29/07/2023,03:08:28,0.000,0.0,0.0,0.0
29/07/2023,03:09:29,0.000,0.0,0.0,0.0
29/07/2023,03:10:28,0.000,0.0,0.0,0.0
29/07/2023,03:11:29,0.000,0.0,0.0,0.0
29/07/2023,03:12:29,-0.000,0.0,0.0,0.0
29/07/2023,03:13:29,0.000,0.0,0.0,0.0
29/07/2023,03:14:29,0.000,0.0,0.0,0.0
29/07/2023,03:15:29,0.000,0.0,0.0,0.0
29/07/2023,03:16:29,0.000,0.0,0.0,0.0
29/07/2023,03:17:29,0.001,0.0,0.0,0.0
29/07/2023,03:18:29,-0.000,0.0,0.0,0.0
29/07/2023,03:19:28,0.000,0.0,0.0,0.0
29/07/2023,03:20:29,0.000,0.0,0.0,0.0
29/07/2023,03:21:28,0.000,0.0,0.0,0.0
29/07/2023,03:22:29,0.000,0.0,0.0,0.0
29/07/2023,03:23:28,0.000,0.0,0.0,0.0
29/07/2023,03:24:29,0.000,0.0,0.0,0.0
29/07/2023,03:25:29,0.000,0.0,0.0,0.0
29/07/2023,03:26:29,0.000,0.0,0.0,0.0
29/07/2023,03:27:29,0.000,0.0,0.0,0.0
29/07/2023,03:28:29,0.000,0.0,0.0,0.0
29/07/2023,03:29:29,0.000,0.0,0.0,0.0
29/07/2023,03:30:29,0.000,0.0,0.0,0.0
29/07/2023,03:31:28,0.000,0.0,0.0,0.0
29/07/2023,03:32:29,-0.000,0.0,0.0,0.0
29/07/2023,03:33:29,0.000,0.0,0.0,0.0
29/07/2023,03:34:29,0.000,0.0,0.0,0.0
29/07/2023,03:35:29,0.000,0.0,0.0,0.0
29/07/2023,03:36:29,0.000,0.0,0.0,0.0
29/07/2023,03:37:29,0.000,0.0,0.0,0.0
29/07/2023,03:38:29,0.000,0.0,0.0,0.0
29/07/2023,03:39:28,0.000,0.0,0.0,0.0
29/07/2023,03:40:29,0.000,0.0,0.0,0.0
29/07/2023,03:41:29,0.000,0.0,0.0,0.0
29/07/2023,03:42:29,0.000,0.0,0.0,0.0
29/07/2023,03:43:29,0.000,0.0,0.0,0.0
29/07/2023,03:44:29,0.000,0.0,0.0,0.0
29/07/2023,03:45:29,0.000,0.0,0.0,0.0
29/07/2023,03:46:29,0.000,0.0,0.0,0.0
29/07/2023,03:47:29,0.000,0.0,0.0,0.0
29/07/2023,03:48:29,0.000,0.0,0.0,0.0
29/07/2023,03:49:29,0.000,0.0,0.0,0.0
29/07/2023,03:50:29,0.000,0.0,0.0,0.0
29/07/2023,03:51:29,0.000,0.0,0.0,0.0
29/07/2023,03:52:28,0.000,0.0,0.0,0.0
29/07/2023,03:53:28,0.000,0.0,0.0,0.0
29/07/2023,03:54:29,0.000,0.0,0.0,0.0
29/07/2023,03:55:30,0.000,0.0,0.0,0.0
29/07/2023,03:56:29,0.000,0.0,0.0,0.0
29/07/2023,03:57:28,0.000,0.0,0.0,0.0
29/07/2023,03:58:29,0.000,0.0,0.0,0.0
29/07/2023,03:59:29,0.000,0.0,0.0,0.0
29/07/2023,04:00:28,0.001,0.0,0.0,0.0
29/07/2023,04:01:29,0.000,0.0,0.0,0.0
29/07/2023,04:02:29,0.000,0.0,0.0,0.0
29/07/2023,04:03:29,0.000,0.0,0.0,0.0
29/07/2023,04:04:29,0.000,0.0,0.0,0.0
29/07/2023,04:05:29,0.000,0.0,0.0,0.0
29/07/2023,04:06:29,0.000,0.0,0.0,0.0
29/07/2023,04:07:29,0.000,0.0,0.0,0.0
29/07/2023,04:08:29,0.000,0.0,0.0,0.0
29/07/2023,04:09:29,-0.000,0.0,0.0,0.0
29/07/2023,04:10:28,0.000,0.0,0.0,0.0
29/07/2023,04:11:28,0.000,0.0,0.0,0.0
29/07/2023,04:12:29,0.001,0.0,0.0,0.0
29/07/2023,04:13:29,0.001,0.0,0.0,0.0
29/07/2023,04:14:29,0.001,0.0,0.0,0.0
29/07/2023,04:15:29,0.002,0.0,0.0,0.0
29/07/2023,04:16:29,0.001,0.0,0.0,0.0
29/07/2023,04:17:29,0.001,0.0,0.0,0.0
29/07/2023,04:18:29,0.000,0.0,0.0,0.0
29/07/2023,04:19:29,0.001,0.0,0.0,0.0
29/07/2023,04:20:29,0.002,0.0,0.0,0.0
29/07/2023,04:21:28,0.001,0.0,0.0,0.0
29/07/2023,04:22:29,0.000,0.0,0.0,0.0
29/07/2023,04:23:29,0.001,0.0,0.0,0.0
29/07/2023,04:24:29,0.001,0.0,0.0,0.0
29/07/2023,04:25:29,0.001,0.0,0.0,0.0
29/07/2023,04:26:29,0.002,0.0,0.0,0.0
29/07/2023,04:27:29,0.002,0.0,0.0,0.0
29/07/2023,04:28:28,0.001,0.0,0.0,0.0
29/07/2023,04:29:29,0.002,0.0,0.0,0.0
29/07/2023,04:30:29,0.002,0.0,0.0,0.0
29/07/2023,04:31:29,0.002,0.0,0.0,0.0
29/07/2023,04:32:29,0.003,0.0,0.0,0.0
29/07/2023,04:33:29,0.004,0.0,0.0,0.0
29/07/2023,04:34:30,0.003,0.0,0.0,0.0
29/07/2023,04:35:29,0.003,0.0,0.0,0.0
29/07/2023,04:36:29,0.002,0.0,0.0,0.0
29/07/2023,04:37:29,0.004,0.0,0.0,0.0
29/07/2023,04:38:28,0.003,0.0,0.0,0.0
29/07/2023,04:39:30,0.003,0.0,0.0,0.0
29/07/2023,04:40:29,0.003,0.0,0.0,0.0
29/07/2023,04:41:29,0.003,0.0,0.0,0.0
29/07/2023,04:42:29,0.003,0.0,0.0,0.0
29/07/2023,04:43:29,0.003,0.0,0.0,0.0
29/07/2023,04:44:29,0.005,0.0,0.0,0.0
29/07/2023,04:45:29,0.004,0.0,0.0,0.0
29/07/2023,04:46:29,0.004,0.0,0.0,0.0
29/07/2023,04:47:29,0.005,0.0,0.0,0.0
29/07/2023,04:48:29,0.005,0.0,0.0,0.0
29/07/2023,04:49:29,0.005,0.0,0.0,0.0
29/07/2023,04:50:28,0.005,0.0,0.0,0.0
29/07/2023,04:51:29,0.005,0.0,0.0,0.0
29/07/2023,04:52:29,0.006,0.0,0.0,0.0
29/07/2023,04:53:29,0.006,0.0,0.0,0.0
29/07/2023,04:54:29,0.006,0.0,0.0,0.0
29/07/2023,04:55:28,0.006,0.0,0.0,0.0
29/07/2023,04:56:29,0.006,0.0,0.0,0.0
29/07/2023,04:57:29,0.007,0.0,0.0,0.0
29/07/2023,04:58:29,0.007,0.0,0.0,0.0
29/07/2023,04:59:30,0.008,0.0,0.001,0.001
29/07/2023,05:00:29,0.008,0.0,0.001,0.0
29/07/2023,05:01:29,0.009,0.0,0.001,0.0
29/07/2023,05:02:29,0.009,0.0,0.001,0.0
29/07/2023,05:03:28,0.009,0.0,0.001,0.0
29/07/2023,05:04:29,0.011,0.0,0.001,0.0
29/07/2023,05:05:29,0.012,0.0,0.002,0.001
29/07/2023,05:06:29,0.013,0.0,0.002,0.0
29/07/2023,05:07:30,0.014,0.0,0.002,0.0
29/07/2023,05:08:29,0.014,0.0,0.002,0.0
29/07/2023,05:09:29,0.015,0.0,0.003,0.001
29/07/2023,05:10:29,0.015,0.0,0.003,0.0
29/07/2023,05:11:29,0.017,0.0,0.003,0.0
29/07/2023,05:12:28,0.018,0.0,0.003,0.0
29/07/2023,05:13:29,0.018,0.0,0.004,0.001
29/07/2023,05:14:29,0.019,0.0,0.004,0.0
29/07/2023,05:15:29,0.019,0.0,0.004,0.0
29/07/2023,05:16:29,0.020,0.0,0.005,0.001
29/07/2023,05:17:29,0.021,0.0,0.005,0.0
29/07/2023,05:18:29,0.022,0.0,0.005,0.0
29/07/2023,05:19:29,0.022,0.0,0.006,0.001
29/07/2023,05:20:29,0.022,0.0,0.006,0.0
29/07/2023,05:21:28,0.024,0.0,0.006,0.0
29/07/2023,05:22:51,0.025,0.0,0.007,0.001
29/07/2023,05:24:30,0.026,0.0,0.008,0.001
29/07/2023,05:25:29,0.027,0.0,0.008,0.0
29/07/2023,05:26:29,0.028,0.0,0.009,0.001
29/07/2023,05:27:29,0.029,0.0,0.009,0.0
29/07/2023,05:28:29,0.030,0.0,0.01,0.001
29/07/2023,05:29:29,0.030,0.0,0.01,0.0
29/07/2023,05:30:29,0.031,0.0,0.011,0.001
29/07/2023,05:31:29,0.032,0.0,0.011,0.0
29/07/2023,05:32:29,0.032,0.0,0.012,0.001
29/07/2023,05:33:29,0.033,0.0,0.012,0.0
29/07/2023,05:34:29,0.034,0.0,0.013,0.001
29/07/2023,05:35:29,0.035,0.0,0.013,0.0
29/07/2023,05:36:29,0.037,0.0,0.014,0.001
29/07/2023,05:37:29,0.038,0.0,0.015,0.001
29/07/2023,05:38:29,0.039,0.0,0.015,0.0
29/07/2023,05:39:29,0.040,0.0,0.016,0.001
29/07/2023,05:40:29,0.041,0.0,0.016,0.0
29/07/2023,05:41:29,0.042,0.0,0.017,0.001
29/07/2023,05:42:29,0.044,0.0,0.018,0.001
29/07/2023,05:43:29,0.045,0.0,0.019,0.001
29/07/2023,05:44:29,0.046,0.0,0.019,0.0
29/07/2023,05:45:29,0.048,0.0,0.02,0.001
29/07/2023,05:46:29,0.047,0.0,0.021,0.001
29/07/2023,05:47:29,0.049,0.0,0.022,0.001
29/07/2023,05:48:29,0.050,0.0,0.023,0.001
29/07/2023,05:49:29,0.051,0.0,0.023,0.0
29/07/2023,05:50:29,0.052,0.0,0.024,0.001
29/07/2023,05:51:29,0.054,0.0,0.025,0.001
29/07/2023,05:52:29,0.055,0.0,0.026,0.001
29/07/2023,05:53:29,0.055,0.0,0.027,0.001
29/07/2023,05:54:29,0.058,0.0,0.028,0.001
29/07/2023,05:55:29,0.059,0.0,0.029,0.001
29/07/2023,05:56:29,0.060,0.0,0.03,0.001
29/07/2023,05:57:29,0.063,0.0,0.031,0.001
29/07/2023,05:58:29,0.064,0.0,0.032,0.001
29/07/2023,05:59:29,0.064,0.0,0.033,0.001
29/07/2023,06:00:29,0.064,0.0,0.034,0.001
29/07/2023,06:01:29,0.063,0.0,0.035,0.001
29/07/2023,06:02:29,0.065,0.0,0.036,0.001
29/07/2023,06:03:29,0.067,0.0,0.037,0.001
29/07/2023,06:04:29,0.071,0.0,0.039,0.002
29/07/2023,06:05:29,0.073,0.0,0.04,0.001
29/07/2023,06:06:29,0.076,0.0,0.041,0.001
29/07/2023,06:07:29,0.078,0.0,0.042,0.001
29/07/2023,06:08:29,0.080,0.0,0.044,0.002
29/07/2023,06:09:29,0.081,0.0,0.045,0.001
29/07/2023,06:10:29,0.081,0.0,0.046,0.001
29/07/2023,06:11:29,0.083,0.0,0.048,0.002
29/07/2023,06:12:29,0.083,0.0,0.049,0.001
29/07/2023,06:13:29,0.084,0.0,0.05,0.001
29/07/2023,06:14:29,0.085,0.0,0.052,0.002
29/07/2023,06:15:29,0.087,0.0,0.053,0.001
29/07/2023,06:16:29,0.088,0.0,0.055,0.002
29/07/2023,06:17:29,0.090,0.0,0.056,0.001
29/07/2023,06:18:29,0.091,0.0,0.058,0.002
29/07/2023,06:19:29,0.095,0.0,0.059,0.001
29/07/2023,06:20:29,0.096,0.0,0.061,0.002
29/07/2023,06:21:29,0.098,0.0,0.062,0.001
29/07/2023,06:22:29,0.099,0.0,0.064,0.002
29/07/2023,06:23:29,0.102,0.0,0.066,0.002
29/07/2023,06:24:29,0.104,0.0,0.067,0.001
29/07/2023,06:25:29,0.105,0.0,0.069,0.002
29/07/2023,06:26:30,0.107,0.0,0.071,0.002
29/07/2023,06:27:30,0.107,0.0,0.073,0.002
29/07/2023,06:28:30,0.109,0.0,0.075,0.002
29/07/2023,06:29:29,0.114,0.0,0.076,0.001
29/07/2023,06:30:29,0.118,0.0,0.078,0.002
29/07/2023,06:31:29,0.122,0.0,0.08,0.002
29/07/2023,06:32:29,0.129,0.0,0.082,0.002
29/07/2023,06:33:29,0.134,0.0,0.085,0.003
29/07/2023,06:34:32,0.140,0.0,0.087,0.002
29/07/2023,06:35:30,0.144,0.0,0.089,0.002
29/07/2023,06:36:29,0.144,0.0,0.092,0.003
29/07/2023,06:37:29,0.147,0.0,0.094,0.002
29/07/2023,06:38:29,0.150,0.0,0.097,0.003
29/07/2023,06:39:29,0.163,0.0,0.099,0.002
29/07/2023,06:40:29,0.173,0.0,0.102,0.003
29/07/2023,06:41:29,0.175,0.0,0.105,0.003
29/07/2023,06:42:29,0.178,0.0,0.108,0.003
29/07/2023,06:43:29,0.181,0.0,0.111,0.003
29/07/2023,06:44:30,0.172,0.0,0.114,0.003
29/07/2023,06:45:29,0.189,0.0,0.117,0.003
29/07/2023,06:46:29,0.195,0.0,0.12,0.003
29/07/2023,06:47:30,0.192,0.0,0.124,0.004
29/07/2023,06:48:29,0.195,0.0,0.127,0.003
29/07/2023,06:49:29,0.179,0.0,0.13,0.003
29/07/2023,06:50:30,0.196,0.0,0.133,0.003
29/07/2023,06:51:29,0.192,0.0,0.136,0.003
29/07/2023,06:52:29,0.168,0.0,0.139,0.003
29/07/2023,06:53:29,0.159,0.0,0.142,0.003
29/07/2023,06:54:29,0.151,0.0,0.144,0.002
29/07/2023,06:55:29,0.144,0.0,0.147,0.003
29/07/2023,06:56:29,0.141,0.0,0.149,0.002
29/07/2023,06:57:29,0.134,0.0,0.151,0.002
29/07/2023,06:58:29,0.109,0.0,0.154,0.003
29/07/2023,06:59:29,0.116,0.0,0.155,0.001
29/07/2023,07:00:29,0.138,0.0,0.158,0.003
29/07/2023,07:01:29,0.129,0.0,0.16,0.002
29/07/2023,07:02:29,0.122,0.0,0.162,0.002
29/07/2023,07:03:30,0.138,0.0,0.164,0.002
29/07/2023,07:04:29,0.151,0.0,0.166,0.002
29/07/2023,07:05:29,0.145,0.0,0.169,0.003
29/07/2023,07:06:29,0.156,0.0,0.171,0.002
29/07/2023,07:07:28,0.174,0.0,0.174,0.003
29/07/2023,07:08:29,0.191,0.0,0.177,0.003
29/07/2023,07:09:29,0.211,0.0,0.181,0.004
29/07/2023,07:10:30,0.260,1.0,0.185,0.004
29/07/2023,07:11:29,0.234,1.0,0.188,0.003
29/07/2023,07:12:31,0.244,1.0,0.193,0.005
29/07/2023,07:13:29,0.251,1.0,0.197,0.004
29/07/2023,07:14:29,0.313,1.0,0.201,0.004
29/07/2023,07:15:29,0.283,1.0,0.206,0.005
29/07/2023,07:16:29,0.297,1.0,0.211,0.005
29/07/2023,07:17:29,0.275,1.0,0.216,0.005
29/07/2023,07:18:29,0.286,1.0,0.221,0.005
29/07/2023,07:19:29,0.337,1.0,0.226,0.005
29/07/2023,07:20:29,0.334,1.0,0.232,0.006
29/07/2023,07:21:29,0.352,1.0,0.237,0.005
29/07/2023,07:22:30,0.331,1.0,0.244,0.007
29/07/2023,07:23:29,0.370,1.0,0.249,0.005
29/07/2023,07:24:30,0.373,1.0,0.255,0.006
29/07/2023,07:25:29,0.378,1.0,0.261,0.006
29/07/2023,07:26:29,0.385,1.0,0.268,0.007
29/07/2023,07:27:29,0.383,1.0,0.274,0.006
29/07/2023,07:28:29,0.397,1.0,0.28,0.006
29/07/2023,07:29:29,0.403,1.0,0.287,0.007
29/07/2023,07:30:29,0.408,1.0,0.294,0.007
29/07/2023,07:31:29,0.413,1.0,0.3,0.006
29/07/2023,07:32:29,0.423,1.0,0.307,0.007
29/07/2023,07:33:29,0.415,1.0,0.315,0.008
29/07/2023,07:34:30,0.409,1.0,0.321,0.006
29/07/2023,07:35:29,0.419,1.0,0.328,0.007
29/07/2023,07:36:29,0.379,1.0,0.335,0.007
29/07/2023,07:37:29,0.359,1.0,0.34,0.005
29/07/2023,07:38:29,0.329,1.0,0.347,0.007
29/07/2023,07:39:29,0.300,1.0,0.351,0.004
29/07/2023,07:40:29,0.300,1.0,0.356,0.005
29/07/2023,07:41:30,0.329,1.0,0.362,0.006
29/07/2023,07:42:29,0.325,1.0,0.368,0.006
29/07/2023,07:43:30,0.300,1.0,0.373,0.005
29/07/2023,07:44:29,0.282,1.0,0.378,0.005
29/07/2023,07:45:29,0.295,1.0,0.382,0.004
29/07/2023,07:46:29,0.307,1.0,0.387,0.005
29/07/2023,07:47:29,0.311,1.0,0.392,0.005
29/07/2023,07:48:30,0.308,1.0,0.398,0.006
29/07/2023,07:49:29,0.296,1.0,0.403,0.005
29/07/2023,07:50:30,0.301,1.0,0.408,0.005
29/07/2023,07:51:29,0.322,1.0,0.413,0.005
29/07/2023,07:52:30,0.346,1.0,0.419,0.006
29/07/2023,07:53:30,0.403,1.0,0.425,0.006
29/07/2023,07:54:29,0.534,1.0,0.433,0.008
29/07/2023,07:55:29,0.520,1.0,0.441,0.008
29/07/2023,07:56:30,0.397,1.0,0.449,0.008
29/07/2023,07:57:29,0.445,1.0,0.456,0.007
29/07/2023,07:58:29,0.584,1.0,0.465,0.009
29/07/2023,07:59:29,0.548,1.0,0.474,0.009
29/07/2023,08:00:29,0.536,1.0,0.483,0.009
29/07/2023,08:01:29,0.439,1.0,0.49,0.007
29/07/2023,08:02:30,0.553,1.0,0.499,0.009
29/07/2023,08:03:29,0.415,1.0,0.507,0.008
29/07/2023,08:04:29,0.433,1.0,0.514,0.007
29/07/2023,08:05:30,0.593,1.0,0.522,0.008
29/07/2023,08:06:30,0.441,1.0,0.531,0.009
29/07/2023,08:07:30,0.610,1.0,0.539,0.008
29/07/2023,08:08:29,0.605,1.0,0.55,0.011
29/07/2023,08:09:30,0.454,1.0,0.559,0.009
29/07/2023,08:10:30,0.407,1.0,0.566,0.007
29/07/2023,08:11:29,0.349,1.0,0.572,0.006
29/07/2023,08:12:30,0.361,1.0,0.578,0.006
29/07/2023,08:13:29,0.313,1.0,0.584,0.006
29/07/2023,08:14:29,0.369,1.0,0.589,0.005
29/07/2023,08:15:29,0.406,1.0,0.596,0.007
29/07/2023,08:16:30,0.367,1.0,0.602,0.006
29/07/2023,08:17:29,0.330,1.0,0.608,0.006
29/07/2023,08:18:29,0.346,1.0,0.613,0.005
29/07/2023,08:19:30,0.408,1.0,0.62,0.007
29/07/2023,08:20:29,0.452,1.0,0.627,0.007
29/07/2023,08:21:30,0.463,1.0,0.635,0.008
29/07/2023,08:22:29,0.455,1.0,0.642,0.007
29/07/2023,08:23:29,0.434,1.0,0.65,0.008
29/07/2023,08:24:30,0.415,1.0,0.657,0.007
29/07/2023,08:25:29,0.389,1.0,0.664,0.007
29/07/2023,08:26:29,0.373,1.0,0.67,0.006
29/07/2023,08:27:30,0.351,1.0,0.676,0.006
29/07/2023,08:28:29,0.328,1.0,0.682,0.006
29/07/2023,08:29:29,0.304,1.0,0.687,0.005
29/07/2023,08:30:29,0.248,1.0,0.691,0.004
29/07/2023,08:31:30,0.209,0.0,0.695,0.004
29/07/2023,08:32:29,0.211,0.0,0.699,0.004
29/07/2023,08:33:29,0.236,1.0,0.702,0.003
29/07/2023,08:34:30,0.286,1.0,0.707,0.005
29/07/2023,08:35:28,0.330,1.0,0.712,0.005
29/07/2023,08:36:30,0.328,1.0,0.717,0.005
29/07/2023,08:37:29,0.349,1.0,0.723,0.006
29/07/2023,08:38:30,0.397,1.0,0.729,0.006
29/07/2023,08:39:29,0.415,1.0,0.736,0.007
29/07/2023,08:40:29,0.427,1.0,0.743,0.007
29/07/2023,08:41:29,0.462,1.0,0.751,0.008
29/07/2023,08:42:29,0.513,1.0,0.758,0.007
29/07/2023,08:43:30,0.567,1.0,0.768,0.01
29/07/2023,08:44:29,0.600,1.0,0.777,0.009
29/07/2023,08:45:29,0.649,1.0,0.788,0.011
29/07/2023,08:46:29,0.785,2.0,0.799,0.011
29/07/2023,08:47:29,0.734,2.0,0.812,0.013
29/07/2023,08:48:29,0.755,2.0,0.824,0.012
29/07/2023,08:49:30,0.816,2.0,0.837,0.013
29/07/2023,08:50:29,0.716,2.0,0.851,0.014
29/07/2023,08:51:29,0.724,2.0,0.864,0.013
29/07/2023,08:52:29,0.878,2.0,0.876,0.012
29/07/2023,08:53:30,0.853,2.0,0.889,0.013
29/07/2023,08:54:29,0.831,2.0,0.903,0.014
29/07/2023,08:55:29,0.741,2.0,0.916,0.013
29/07/2023,08:56:30,0.838,2.0,0.931,0.015
29/07/2023,08:57:29,0.859,2.0,0.945,0.014
29/07/2023,08:58:29,0.751,2.0,0.959,0.014
29/07/2023,08:59:30,0.739,2.0,0.971,0.012
29/07/2023,09:00:29,0.933,2.0,0.984,0.013
29/07/2023,09:01:29,1.143,3.0,0.999,0.015
29/07/2023,09:02:30,1.124,3.0,1.018,0.019
29/07/2023,09:03:29,0.962,2.0,1.035,0.017
29/07/2023,09:04:29,0.848,2.0,1.049,0.014
29/07/2023,09:05:29,0.801,2.0,1.063,0.014
29/07/2023,09:06:29,0.922,2.0,1.077,0.014
29/07/2023,09:07:29,1.115,3.0,1.092,0.015
29/07/2023,09:08:30,0.663,2.0,1.106,0.014
29/07/2023,09:09:29,0.622,1.0,1.116,0.01
29/07/2023,09:10:29,0.576,1.0,1.127,0.011
29/07/2023,09:11:30,0.555,1.0,1.136,0.009
29/07/2023,09:12:30,0.597,1.0,1.146,0.01
29/07/2023,09:13:29,0.660,2.0,1.156,0.01
29/07/2023,09:14:29,1.164,3.0,1.172,0.016
29/07/2023,09:15:29,1.208,3.0,1.192,0.02
29/07/2023,09:16:30,0.945,2.0,1.211,0.019
29/07/2023,09:17:29,1.129,3.0,1.228,0.017
29/07/2023,09:18:29,1.289,3.0,1.249,0.021
29/07/2023,09:19:29,1.074,2.0,1.269,0.02
29/07/2023,09:20:29,1.230,3.0,1.289,0.02
29/07/2023,09:21:30,0.815,2.0,1.305,0.016
29/07/2023,09:22:30,0.862,2.0,1.319,0.014
29/07/2023,09:23:30,0.813,2.0,1.333,0.014
29/07/2023,09:24:29,0.759,2.0,1.347,0.014
29/07/2023,09:25:29,0.829,2.0,1.36,0.013
29/07/2023,09:26:29,0.876,2.0,1.375,0.015
29/07/2023,09:27:29,0.901,2.0,1.389,0.014
29/07/2023,09:28:30,0.810,2.0,1.404,0.015
29/07/2023,09:29:30,0.723,2.0,1.416,0.012
29/07/2023,09:30:30,0.677,2.0,1.428,0.012
29/07/2023,09:31:29,0.678,2.0,1.439,0.011
29/07/2023,09:32:29,0.725,2.0,1.451,0.012
29/07/2023,09:33:31,0.733,2.0,1.463,0.012
29/07/2023,09:34:29,0.641,1.0,1.474,0.011
29/07/2023,09:35:30,0.539,1.0,1.484,0.01
29/07/2023,09:36:29,0.516,1.0,1.493,0.009
29/07/2023,09:37:29,0.546,1.0,1.502,0.009
29/07/2023,09:38:30,0.570,1.0,1.511,0.009
29/07/2023,09:39:30,0.612,1.0,1.521,0.01
29/07/2023,09:40:30,0.656,2.0,1.532,0.011
29/07/2023,09:41:29,0.668,2.0,1.543,0.011
29/07/2023,09:42:29,0.672,2.0,1.554,0.011
29/07/2023,09:43:30,0.647,1.0,1.565,0.011
29/07/2023,09:44:29,0.639,1.0,1.576,0.011
29/07/2023,09:45:29,0.701,2.0,1.586,0.01
29/07/2023,09:46:30,0.747,2.0,1.599,0.013
29/07/2023,09:47:29,0.777,2.0,1.611,0.012
29/07/2023,09:48:30,0.800,2.0,1.625,0.014
29/07/2023,09:49:29,0.829,2.0,1.638,0.013
29/07/2023,09:50:30,0.855,2.0,1.652,0.014
29/07/2023,09:51:29,0.861,2.0,1.666,0.014
29/07/2023,09:52:29,0.876,2.0,1.681,0.015
29/07/2023,09:53:30,0.891,2.0,1.696,0.015
29/07/2023,09:54:29,0.895,2.0,1.711,0.015
29/07/2023,09:55:29,0.854,2.0,1.726,0.015
29/07/2023,09:56:30,0.771,2.0,1.739,0.013
29/07/2023,09:57:29,0.690,2.0,1.752,0.013
29/07/2023,09:58:29,0.638,1.0,1.763,0.011